TimeCST,TemperatureF,Dew PointF,Humidity,Sea Level PressureIn,VisibilityMPH,Wind Direction,Wind SpeedMPH,Gust SpeedMPH,PrecipitationIn,Events,Conditions,WindDirDegrees,DateUTC
12:15 AM,8.6,5.0,85,30.24,10.0,Calm,Calm,-,N/A,,Clear,0,2013-01-02 06:15:00
12:35 AM,8.6,5.0,85,30.23,10.0,Calm,Calm,-,N/A,,Clear,0,2013-01-02 06:35:00
12:55 AM,8.6,5.0,85,30.23,10.0,Calm,Calm,-,N/A,,Clear,0,2013-01-02 06:55:00
1:15 AM,8.6,5.0,85,30.24,10.0,Calm,Calm,-,N/A,,Clear,0,2013-01-02 07:15:00
1:35 AM,6.8,5.0,92,30.22,10.0,Calm,Calm,-,N/A,,Clear,0,2013-01-02 07:35:00
1:55 AM,8.6,5.0,85,30.23,10.0,Calm,Calm,-,N/A,,Clear,0,2013-01-02 07:55:00
2:15 AM,6.8,5.0,92,30.23,10.0,Calm,Calm,-,N/A,,Clear,0,2013-01-02 08:15:00
2:35 AM,6.8,5.0,92,30.22,10.0,Calm,Calm,-,N/A,,Clear,0,2013-01-02 08:35:00
3:15 AM,6.8,5.0,92,30.22,10.0,Calm,Calm,-,N/A,,Clear,0,2013-01-02 09:15:00
3:35 AM,6.8,5.0,92,30.22,10.0,Calm,Calm,-,N/A,,Clear,0,2013-01-02 09:35:00
3:55 AM,6.8,5.0,92,30.22,10.0,Calm,Calm,-,N/A,,Clear,0,2013-01-02 09:55:00
4:15 AM,6.8,5.0,92,30.20,10.0,ESE,3.5,-,N/A,,Clear,120,2013-01-02 10:15:00
4:35 AM,8.6,5.0,85,30.19,10.0,Calm,Calm,-,N/A,,Clear,0,2013-01-02 10:35:00
4:55 AM,8.6,5.0,85,30.19,10.0,Calm,Calm,-,N/A,,Clear,0,2013-01-02 10:55:00
5:15 AM,8.6,6.8,92,30.19,10.0,Calm,Calm,-,N/A,,Clear,0,2013-01-02 11:15:00
5:35 AM,8.6,5.0,85,30.19,10.0,Calm,Calm,-,N/A,,Clear,0,2013-01-02 11:35:00
5:55 AM,8.6,6.8,92,30.19,10.0,Calm,Calm,-,N/A,,Clear,0,2013-01-02 11:55:00
6:15 AM,8.6,6.8,92,30.19,10.0,Calm,Calm,-,N/A,,Clear,0,2013-01-02 12:15:00
6:35 AM,8.6,5.0,85,30.19,10.0,Calm,Calm,-,N/A,,Clear,0,2013-01-02 12:35:00
6:55 AM,8.6,5.0,85,30.19,10.0,Calm,Calm,-,N/A,,Clear,0,2013-01-02 12:55:00
7:15 AM,8.6,5.0,85,30.19,10.0,Calm,Calm,-,N/A,,Clear,0,2013-01-02 13:15:00
7:35 AM,8.6,5.0,85,30.18,10.0,Calm,Calm,-,N/A,,Clear,0,2013-01-02 13:35:00
7:55 AM,8.6,6.8,92,30.18,10.0,SE,3.5,-,N/A,,Clear,140,2013-01-02 13:55:00
8:15 AM,10.4,8.6,92,30.17,10.0,ESE,3.5,-,N/A,,Clear,120,2013-01-02 14:15:00
8:35 AM,12.2,10.4,92,30.17,10.0,SE,3.5,-,N/A,,Unknown,140,2013-01-02 14:35:00
9:15 AM,17.6,14.0,86,30.18,10.0,Calm,Calm,-,N/A,,Clear,0,2013-01-02 15:15:00
9:35 AM,17.6,14.0,86,30.18,10.0,Calm,Calm,-,N/A,,Clear,0,2013-01-02 15:35:00
9:55 AM,21.2,17.6,86,30.18,10.0,SSE,3.5,-,N/A,,Clear,150,2013-01-02 15:55:00
10:15 AM,21.2,17.6,86,30.17,10.0,ESE,5.8,-,N/A,,Clear,120,2013-01-02 16:15:00
10:35 AM,24.8,19.4,80,30.17,10.0,South,4.6,-,N/A,,Clear,180,2013-01-02 16:35:00
10:55 AM,26.6,21.2,80,30.17,10.0,South,3.5,-,N/A,,Clear,180,2013-01-02 16:55:00
11:15 AM,28.4,21.2,74,30.17,10.0,SSW,8.1,-,N/A,,Clear,200,2013-01-02 17:15:00
11:35 AM,30.2,21.2,69,30.17,10.0,SSW,5.8,-,N/A,,Clear,200,2013-01-02 17:35:00
11:55 AM,32.0,23.0,69,30.15,10.0,South,5.8,-,N/A,,Clear,190,2013-01-02 17:55:00
12:15 PM,32.0,23.0,69,30.14,10.0,SSW,4.6,-,N/A,,Clear,210,2013-01-02 18:15:00
12:35 PM,33.8,23.0,65,30.12,10.0,SW,9.2,-,N/A,,Clear,230,2013-01-02 18:35:00
12:55 PM,33.8,23.0,65,30.12,10.0,SW,11.5,-,N/A,,Clear,220,2013-01-02 18:55:00
1:15 PM,33.8,23.0,65,30.12,10.0,SW,11.5,-,N/A,,Clear,220,2013-01-02 19:15:00
1:35 PM,33.8,23.0,65,30.12,10.0,SW,8.1,-,N/A,,Clear,230,2013-01-02 19:35:00
1:55 PM,33.8,24.8,70,30.11,10.0,WSW,8.1,-,N/A,,Clear,240,2013-01-02 19:55:00
2:15 PM,33.8,24.8,70,30.10,10.0,WSW,11.5,17.3,N/A,,Clear,240,2013-01-02 20:15:00
2:35 PM,33.8,24.8,70,30.10,10.0,SW,9.2,18.4,N/A,,Unknown,230,2013-01-02 20:35:00
2:55 PM,33.8,23.0,65,30.10,10.0,SW,10.4,-,N/A,,Clear,230,2013-01-02 20:55:00
3:15 PM,33.8,24.8,70,30.12,10.0,SW,10.4,-,N/A,,Clear,230,2013-01-02 21:15:00
3:35 PM,33.8,24.8,70,30.12,10.0,WSW,8.1,-,N/A,,Clear,240,2013-01-02 21:35:00
3:55 PM,33.8,23.0,65,30.13,10.0,West,8.1,-,N/A,,Clear,260,2013-01-02 21:55:00
4:15 PM,33.8,23.0,65,30.13,10.0,WSW,6.9,-,N/A,,Clear,240,2013-01-02 22:15:00
4:35 PM,32.0,23.0,69,30.13,10.0,SW,6.9,-,N/A,,Clear,230,2013-01-02 22:35:00
5:15 PM,32.0,23.0,69,30.14,10.0,WSW,5.8,-,N/A,,Mostly Cloudy,240,2013-01-02 23:15:00
5:35 PM,32.0,23.0,69,30.16,10.0,West,4.6,-,N/A,,Scattered Clouds,260,2013-01-02 23:35:00
5:55 PM,32.0,23.0,69,30.17,10.0,West,5.8,-,N/A,,Overcast,270,2013-01-02 23:55:00
6:15 PM,32.0,21.2,64,30.18,10.0,West,9.2,-,N/A,,Overcast,260,2013-01-03 00:15:00
6:35 PM,32.0,21.2,64,30.18,10.0,West,5.8,-,N/A,,Overcast,260,2013-01-03 00:35:00
6:55 PM,32.0,21.2,64,30.19,10.0,West,4.6,-,N/A,,Overcast,270,2013-01-03 00:55:00
7:15 PM,32.0,23.0,69,30.19,10.0,West,3.5,-,N/A,,Overcast,280,2013-01-03 01:15:00
7:35 PM,30.2,21.2,69,30.20,10.0,West,3.5,-,N/A,,Scattered Clouds,280,2013-01-03 01:35:00
7:55 PM,30.2,21.2,69,30.20,10.0,Calm,Calm,-,N/A,,Clear,0,2013-01-03 01:55:00
8:15 PM,28.4,21.2,74,30.20,10.0,Calm,Calm,-,N/A,,Clear,0,2013-01-03 02:15:00
8:35 PM,28.4,21.2,74,30.21,10.0,West,3.5,-,N/A,,Clear,270,2013-01-03 02:35:00
8:55 PM,28.4,21.2,74,30.21,10.0,Calm,Calm,-,N/A,,Clear,0,2013-01-03 02:55:00
9:15 PM,26.6,21.2,80,30.22,10.0,Calm,Calm,-,N/A,,Mostly Cloudy,0,2013-01-03 03:15:00
9:35 PM,26.6,21.2,80,30.22,10.0,Calm,Calm,-,N/A,,Overcast,0,2013-01-03 03:35:00
9:55 PM,26.6,21.2,80,30.23,10.0,Calm,Calm,-,N/A,,Overcast,0,2013-01-03 03:55:00
10:15 PM,28.4,21.2,74,30.23,10.0,Calm,Calm,-,N/A,,Overcast,0,2013-01-03 04:15:00
10:35 PM,28.4,23.0,80,30.24,10.0,Calm,Calm,-,N/A,,Overcast,0,2013-01-03 04:35:00
10:55 PM,28.4,23.0,80,30.24,10.0,Calm,Calm,-,N/A,,Overcast,0,2013-01-03 04:55:00
11:15 PM,28.4,23.0,80,30.25,10.0,Calm,Calm,-,N/A,,Overcast,0,2013-01-03 05:15:00
11:35 PM,28.4,23.0,80,30.24,10.0,Calm,Calm,-,N/A,,Overcast,0,2013-01-03 05:35:00
11:55 PM,28.4,23.0,80,30.25,10.0,Calm,Calm,-,N/A,,Overcast,0,2013-01-03 05:55:00